G6212 Weather Reports


time (UTC)temp
C
wind
direction
speed
KPH
gust
KPH
rain 1hr
cm
rain 24hr
cm
rain mn
cm
humidity
%
barometer
mb
20260506051023 24 137 3.2 4.8 0.00 0.00 0.00 95
20260506050523 24 130 3.2 4.8 0.00 0.00 0.00 94
20260506050103 24 168 3.2 4.8 0.00 0.00 0.00 94
20260506045023 24 118 3.2 4.8 0.00 0.00 0.00 94
20260506044523 24 141 3.2 4.8 0.00 0.00 0.00 94
20260506044023 24 165 4.8 6.4 0.00 0.00 0.00 93
20260506043523 24 180 3.2 6.4 0.00 0.00 0.00 93
20260506043043 24 148 3.2 3.2 0.00 0.00 0.00 93
20260506042543 24 154 3.2 4.8 0.00 0.00 0.00 93
20260506042023 25 173 3.2 4.8 0.00 0.00 0.00 92
20260506041524 25 176 4.8 8.0 0.00 0.00 0.00 92
20260506041023 25 135 4.8 8.0 0.00 0.00 0.00 91
20260506040523 25 125 3.2 3.2 0.00 0.00 0.00 91
20260506040024 25 133 4.8 4.8 0.00 0.00 0.00 91
20260506035624 25 134 3.2 4.8 0.00 0.00 0.00 90
20260506035024 25 133 4.8 4.8 0.00 0.00 0.00 90
20260506034524 25 119 3.2 4.8 0.00 0.00 0.00 89
20260506034044 25 147 4.8 4.8 0.00 0.00 0.00 89
20260506033524 25 146 6.4 6.4 0.00 0.00 0.00 89
20260506033024 25 148 4.8 6.4 0.00 0.00 0.00 89
20260506032544 25 146 4.8 6.4 0.00 0.00 0.00 89
20260506032024 25 149 4.8 6.4 0.00 0.00 0.00 89
20260506031544 25 148 4.8 6.4 0.00 0.00 0.00 89
20260506031025 25 148 4.8 6.4 0.00 0.00 0.00 89
20260506030525 25 158 9.7 9.7 0.00 0.00 0.00 89
20260506030025 25 167 8.0 9.7 0.00 0.00 0.00 89
20260506025525 25 173 6.4 9.7 0.00 0.00 0.00 89
20260506025025 25 182 8.0 9.7 0.00 0.00 0.00 89
20260506024525 25 177 6.4 6.4 0.00 0.00 0.00 88
20260506024025 25 183 6.4 8.0 0.00 0.00 0.00 88
20260506023545 25 166 8.0 11.3 0.00 0.00 0.00 87
20260506023046 25 170 6.4 8.0 0.00 0.00 0.00 87
20260506022525 25 190 6.4 8.0 0.00 0.00 0.00 87
20260506022025 25 183 6.4 8.0 0.00 0.00 0.00 87
20260506021525 25 187 8.0 9.7 0.00 0.00 0.00 87
20260506021045 25 154 8.0 9.7 0.00 0.00 0.00 86
20260506020525 25 176 6.4 8.0 0.00 0.00 0.00 86
20260506020025 25 191 6.4 8.0 0.00 0.00 0.00 86
20260506015526 25 189 8.0 9.7 0.00 0.00 0.00 86
20260506015045 26 183 6.4 11.3 0.00 0.00 0.00 86
20260506014526 26 214 6.4 8.0 0.00 0.00 0.00 85
20260506014025 26 176 6.4 9.7 0.00 0.00 0.00 85
20260506013525 26 188 6.4 8.0 0.00 0.00 0.00 85
20260506013046 26 199 8.0 8.0 0.00 0.00 0.00 85
20260506012546 26 187 6.4 8.0 0.00 0.00 0.00 84
20260506012026 26 157 9.7 11.3 0.00 0.00 0.00 84
20260506011526 26 156 8.0 9.7 0.00 0.00 0.00 84
20260506011106 26 194 8.0 8.0 0.00 0.00 0.00 84
20260506010546 26 236 8.0 9.7 0.00 0.00 0.00 83
20260506010026 26 243 9.7 11.3 0.00 0.00 0.00 83
20260506005526 26 243 9.7 11.3 0.00 0.00 0.00 83
20260506005026 26 238 9.7 11.3 0.00 0.00 0.00 82
20260506004527 26 238 8.0 9.7 0.00 0.00 0.00 82
20260506004026 26 237 8.0 9.7 0.00 0.00 0.00 82
20260506003527 26 240 9.7 9.7 0.00 0.00 0.00 82
20260506003027 26 245 9.7 11.3 0.00 0.00 0.00 81
20260506002607 26 240 9.7 11.3 0.00 0.00 0.00 81
20260506002048 26 228 9.7 9.7 0.00 0.00 0.00 81
20260506001527 26 180 8.0 9.7 0.00 0.00 0.00 81
20260506001027 26 143 14.5 17.7 0.00 0.00 0.00 81
20260506000527 26 130 16.1 17.7 0.00 0.00 0.00 81
20260506000027 26 131 9.7 14.5 0.00 0.00 0.00 81
20260505235527 26 129 8.0 9.7 0.00 0.00 0.00 81
20260505235028 26 131 9.7 14.5 0.00 0.00 0.00 81
20260505234527 26 136 17.7 20.9 0.00 0.00 0.00 81
20260505234028 26 134 19.3 22.5 0.00 0.00 0.00 81
20260505233608 27 49 8.0 11.3 0.00 0.00 0.00 81
20260505233028 27 324 6.4 6.4 0.00 0.00 0.00 80
20260505232528 27 292 6.4 8.0 0.00 0.00 0.00 80
20260505232028 27 286 6.4 6.4 0.00 0.00 0.00 80
20260505231528 27 292 6.4 6.4 0.00 0.00 0.00 80
20260505231048 27 290 6.4 6.4 0.00 0.00 0.00 80
20260505230528 27 289 6.4 6.4 0.00 0.00 0.00 80
20260505230028 27 272 6.4 6.4 0.00 0.00 0.00 80
20260505225528 27 238 6.4 8.0 0.00 0.00 0.00 80
20260505225028 27 202 8.0 9.7 0.00 0.00 0.00 79
20260505224529 27 197 9.7 11.3 0.00 0.00 0.00 77
20260505224028 27 198 9.7 11.3 0.00 0.00 0.00 77
20260505223529 27 170 6.4 8.0 0.00 0.00 0.00 77
20260505223029 27 191 6.4 11.3 0.00 0.00 0.00 77
20260505222549 27 209 11.3 12.9 0.00 0.00 0.00 77
20260505222029 27 209 11.3 12.9 0.00 0.00 0.00 77
20260505221529 27 203 9.7 11.3 0.00 0.00 0.00 76
20260505221049 27 213 11.3 11.3 0.00 0.00 0.00 77
20260505220529 27 213 9.7 11.3 0.00 0.00 0.00 77
20260505220029 27 204 8.0 9.7 0.00 0.00 0.00 78
20260505215549 27 179 9.7 11.3 0.00 0.00 0.00 78
20260505215030 27 214 11.3 14.5 0.00 0.00 0.00 77
20260505214530 27 204 6.4 8.0 0.00 0.00 0.00 77
20260505214029 27 188 11.3 12.9 0.00 0.00 0.00 77
20260505213530 27 188 11.3 11.3 0.00 0.00 0.00 77
20260505213030 27 188 9.7 12.9 0.00 0.00 0.00 77
20260505212530 27 189 12.9 12.9 0.00 0.00 0.00 77
20260505212030 27 189 12.9 12.9 0.00 0.00 0.00 78
20260505211530 27 191 11.3 12.9 0.00 0.00 0.00 78
20260505211030 27 191 11.3 11.3 0.00 0.00 0.00 78
20260505210531 27 190 11.3 12.9 0.00 0.00 0.00 77
20260505210030 27 195 11.3 14.5 0.00 0.00 0.00 77
20260505205531 27 197 12.9 14.5 0.00 0.00 0.00 78
20260505205030 27 197 12.9 12.9 0.00 0.00 0.00 78
20260505204531 27 198 11.3 12.9 0.00 0.00 0.00 78
20260505204030 27 198 11.3 14.5 0.00 0.00 0.00 78
20260505203531 27 201 12.9 12.9 0.00 0.00 0.00 78
20260505203031 27 199 12.9 14.5 0.00 0.00 0.00 77
20260505202551 27 201 12.9 14.5 0.00 0.00 0.00 77
20260505202031 27 200 11.3 12.9 0.00 0.00 0.00 77
20260505201531 27 207 8.0 9.7 0.00 0.00 0.00 78
20260505201031 27 205 9.7 11.3 0.00 0.00 0.00 78
20260505200531 27 214 11.3 14.5 0.00 0.00 0.00 78
20260505200031 27 200 9.7 12.9 0.00 0.00 0.00 79
20260505195531 27 204 12.9 12.9 0.00 0.00 0.00 79
20260505195031 27 207 9.7 12.9 0.00 0.00 0.00 79
20260505194532 27 211 6.4 8.0 0.00 0.00 0.00 79
20260505194032 27 199 9.7 11.3 0.00 0.00 0.00 80
20260505193552 27 209 8.0 9.7 0.00 0.00 0.00 80
20260505193032 27 218 6.4 8.0 0.00 0.00 0.00 81
20260505192552 26 217 9.7 12.9 0.00 0.00 0.00 81
20260505192032 26 225 11.3 14.5 0.00 0.00 0.00 82
20260505191532 26 206 9.7 11.3 0.00 0.00 0.00 81
20260505191032 26 223 8.0 8.0 0.00 0.00 0.00 80
20260505190532 27 218 6.4 8.0 0.00 0.00 0.00 80
20260505190032 27 209 8.0 9.7 0.00 0.00 0.00 80
20260505185533 27 184 9.7 11.3 0.00 0.00 0.00 80
20260505185033 27 186 9.7 11.3 0.00 0.00 0.00 80
20260505184533 26 204 8.0 9.7 0.00 0.00 0.00 80
20260505184033 26 202 11.3 12.9 0.00 0.00 0.00 80
20260505183533 26 209 8.0 9.7 0.00 0.00 0.00 81
20260505183033 26 217 8.0 12.9 0.00 0.00 0.00 82
20260505182533 26 212 8.0 12.9 0.00 0.00 0.00 81
20260505182033 26 242 11.3 16.1 0.00 0.00 0.00 82
20260505181533 26 257 12.9 14.5 0.00 0.00 0.00 82
20260505181033 26 245 12.9 16.1 0.00 0.00 0.00 82
20260505180534 26 196 16.1 17.7 0.00 0.00 0.00 82
20260505180033 26 191 16.1 17.7 0.00 0.00 0.00 82
20260505175534 26 199 12.9 14.5 0.00 0.00 0.00 82
20260505175034 26 193 12.9 14.5 0.00 0.00 0.00 82
20260505174534 26 192 12.9 14.5 0.00 0.00 0.00 83
20260505174054 26 193 14.5 14.5 0.00 0.00 0.00 83
20260505173534 26 193 12.9 14.5 0.00 0.00 0.00 83
20260505173115 26 193 12.9 12.9 0.00 0.00 0.00 84
20260505172534 25 194 12.9 14.5 0.00 0.00 0.00 85
20260505172034 25 195 12.9 12.9 0.00 0.00 0.00 85
20260505171534 25 188 11.3 11.3 0.00 0.00 0.00 85
20260505171034 25 198 8.0 11.3 0.00 0.00 0.00 85
20260505170535 25 185 6.4 8.0 0.00 0.00 0.00 85
20260505170034 25 187 8.0 9.7 0.00 0.00 0.00 85
20260505165535 25 195 9.7 9.7 0.00 0.00 0.00 85
20260505165115 25 190 8.0 9.7 0.00 0.00 0.00 85
20260505164535 25 206 8.0 9.7 0.00 0.00 0.00 86
20260505164036 25 213 9.7 11.3 0.00 0.00 0.00 86
20260505163536 25 214 8.0 9.7 0.00 0.00 0.00 87
20260505163035 25 204 8.0 11.3 0.00 0.00 0.00 86
20260505162535 25 199 9.7 9.7 0.00 0.00 0.00 86
20260505162035 25 204 9.7 11.3 0.00 0.00 0.00 86
20260505161535 25 250 9.7 11.3 0.00 0.00 0.00 87
20260505161035 25 224 9.7 11.3 0.00 0.00 0.00 87
20260505160535 25 228 9.7 11.3 0.00 0.00 0.00 87
20260505153036 24 192 8.0 9.7 0.00 0.00 0.00 90
20260505152536 24 194 6.4 8.0 0.00 0.00 0.00 90
20260505152036 24 214 4.8 6.4 0.00 0.00 0.00 92
20260505151536 23 213 4.8 6.4 0.00 0.00 0.00 92
20260505151036 23 197 6.4 8.0 0.00 0.00 0.00 92
20260505150536 23 195 6.4 8.0 0.00 0.00 0.00 93
20260505140537 23 191 8.0 11.3 0.00 0.00 0.00 93
20260505125038 21 192 6.4 8.0 0.00 0.00 0.00 97
20260505124558 21 190 6.4 8.0 0.00 0.00 0.00 97
20260505124038 21 181 4.8 6.4 0.00 0.00 0.00 97
20260505123538 21 187 4.8 6.4 0.00 0.00 0.00 97
20260505123038 21 199 4.8 6.4 0.00 0.00 0.00 97
20260505122538 21 187 4.8 6.4 0.00 0.00 0.00 97
20260505122038 21 188 4.8 6.4 0.00 0.00 0.00 97
20260505121539 21 178 4.8 6.4 0.00 0.00 0.00 97
20260505121039 21 176 4.8 6.4 0.00 0.00 0.00 97
20260505120539 21 173 4.8 6.4 0.00 0.00 0.00 97
20260505120039 21 169 3.2 4.8 0.00 0.00 0.00 97
20260505115539 21 176 4.8 4.8 0.00 0.00 0.00 97
20260505115059 21 155 4.8 6.4 0.00 0.00 0.00 97
20260505114540 21 170 4.8 6.4 0.00 0.00 0.00 97
20260505114059 20 180 4.8 4.8 0.00 0.00 0.00 97
20260505113559 20 162 3.2 4.8 0.00 0.00 0.00 97
20260505113039 20 173 3.2 4.8 0.00 0.00 0.00 97
20260505112539 20 161 3.2 3.2 0.00 0.00 0.00 97
20260505112039 20 179 3.2 4.8 0.00 0.00 0.00 97
20260505111539 20 188 3.2 4.8 0.00 0.00 0.00 97
20260505111040 20 157 1.6 4.8 0.00 0.00 0.00 97
20260505110540 20 157 3.2 4.8 0.00 0.00 0.00 97
20260505102040 20 122 1.6 3.2 0.00 0.00 0.00 97
20260505101540 20 155 1.6 4.8 0.00 0.00 0.00 96
20260505101041 20 171 4.8 6.4 0.00 0.00 0.00 96
20260505100541 20 164 3.2 4.8 0.00 0.00 0.00 96
20260505100041 20 163 4.8 6.4 0.00 0.00 0.00 96
20260505095541 20 193 3.2 4.8 0.00 0.00 0.00 96
20260505095041 20 174 3.2 4.8 0.00 0.00 0.00 96
20260505094541 20 163 3.2 4.8 0.00 0.00 0.00 96
20260505094101 20 163 3.2 3.2 0.00 0.00 0.00 96
20260505093541 20 137 3.2 4.8 0.00 0.00 0.00 95
20260505093041 20 140 3.2 4.8 0.00 0.00 0.00 95
20260505092541 20 170 3.2 3.2 0.00 0.00 0.00 95
20260505092041 20 177 3.2 6.4 0.00 0.00 0.00 95
20260505091542 20 171 3.2 4.8 0.00 0.00 0.00 95
20260505091041 20 170 4.8 4.8 0.00 0.00 0.00 95
20260505090541 20 185 3.2 6.4 0.00 0.00 0.00 95
20260505085541 20 201 3.2 4.8 0.00 0.00 0.00 95
20260505085102 20 168 4.8 6.4 0.00 0.00 0.00 95
20260505084542 20 184 3.2 4.8 0.00 0.00 0.00 95
20260505084042 20 177 3.2 6.4 0.00 0.00 0.00 94
20260505083542 20 177 4.8 8.0 0.00 0.00 0.00 94
20260505083042 20 188 3.2 4.8 0.00 0.00 0.00 94
20260505082542 20 193 3.2 4.8 0.00 0.00 0.00 94
20260505082042 20 193 3.2 4.8 0.00 0.00 0.00 94
20260505081602 20 159 3.2 4.8 0.00 0.00 0.00 94
20260505081042 20 153 3.2 4.8 0.00 0.00 0.00 94
20260505080542 20 181 3.2 4.8 0.00 0.00 0.00 94
20260505080042 20 170 4.8 8.0 0.00 0.00 0.00 93
20260505075542 20 178 3.2 4.8 0.00 0.00 0.00 93
20260505075043 20 190 4.8 6.4 0.00 0.00 0.00 93
20260505074542 20 185 4.8 6.4 0.00 0.00 0.00 93
20260505074042 20 183 4.8 6.4 0.00 0.00 0.00 93
20260505073543 20 197 4.8 4.8 0.00 0.00 0.00 93
20260505073043 20 204 4.8 6.4 0.00 0.00 0.00 93
20260505072543 20 172 4.8 6.4 0.00 0.00 0.00 93
20260505072044 20 176 4.8 6.4 0.00 0.00 0.00 92
20260505071603 20 209 3.2 4.8 0.00 0.00 0.00 92
20260505071043 20 192 3.2 4.8 0.00 0.00 0.00 92
20260505070603 20 184 4.8 8.0 0.00 0.00 0.00 92
20260505070044 20 178 3.2 4.8 0.00 0.00 0.00 91
20260505065603 20 179 4.8 4.8 0.00 0.00 0.00 91
20260505065103 20 188 3.2 4.8 0.00 0.00 0.00 91
20260505064543 21 180 4.8 8.0 0.00 0.00 0.00 91
20260505064045 21 168 6.4 8.0 0.00 0.00 0.00 90
20260505063543 21 177 4.8 4.8 0.00 0.00 0.00 90
20260505063104 21 179 4.8 6.4 0.00 0.00 0.00 90
20260505062544 21 167 6.4 6.4 0.00 0.00 0.00 90
20260505062044 21 198 4.8 6.4 0.00 0.00 0.00 90
20260505061624 21 180 4.8 6.4 0.00 0.00 0.00 90
20260505061044 21 180 4.8 6.4 0.00 0.00 0.00 89
20260505060545 21 198 4.8 4.8 0.00 0.00 0.00 89